Location: Al Mulaqqa?ah
(24.1833°N, 32.8833°E)
Time: 17:17:30
(UTC+00:00)

ARGOS - Pass Details

Date: 26 September 2021
Orbit: 820 x 834 km, 98.4° (Epoch: 15 October)

Event Time Altitude Azimuth Distance (km) Brightness Sun altitude
Rises 16:53:08 0° 178° (S) 3,337 6.2 -17.4°
Reaches altitude 10° 16:55:31 10° 182° (S) 2,406 5.5 -17.9°
Maximum altitude 17:00:42 54° 259° (W) 993 3.9 -19.1°
Drops below altitude 10° 17:05:56 10° 336° (NNW) 2,417 6.0 -20.3°
Sets 17:08:21 0° 341° (NNW) 3,353 6.7 -20.8°
